User: anonymous   Login
Location: Azul
(36.7830°S, 59.8500°W)
Time: 09:15:26
(UTC-03:00)
Language:

BEESAT - Orbit

View from above orbital plane
View from above orbital plane
View from above satellite
View from above satellite

Ground track
Ground track

The orbit data is extracted from the following two-line orbital elements,

1 35933U 09051C   21294.50835984  .00000188  00000-0  53092-4 0  9998
2 35933  98.5870 140.2129 0006887  75.8544 284.3418 14.56647233641386
Epoch (UTC): 21 October 2021 12:12:02
Eccentricity: 0.0006887
inclination: 98.5870°
perigee height: 699 km
apogee height: 709 km
right ascension of ascending node: 140.2129°
argument of perigee: 75.8544°
revolutions per day: 14.56647233
mean anomaly at epoch: 284.3418°
orbit number at epoch: 64138

The dashed part of the orbit path shows where the satellite is in the earth's shadow,  

DLR